Wetbulb
73.23 73.39 73.72 73.55 72.74 71.87 71.59 71.65 71.88 71.04 72.65 73.04 74.34 74.16 72.94 71.93 71.43 71.65 72.06 72.04 71.89 71.08
74.76 73.87 73.55 73.20 73.27 73.69 73.71 73.97 72.55 72.91 72.24 70.45 73.22 74.69 73.78 72.24 71.25 70.60 71.67 72.00 72.21 71.19
73.13 74.61 74.67 74.04 74.35 74.81 74.49 74.49 72.71 71.64 71.76 71.49 73.92 74.85 73.89 73.29 72.40 71.50 72.17 72.87 72.24 72.52
73.26 73.73 74.07 74.22 74.09 74.17 74.34 73.84 73.42 73.30 72.58 73.82 75.41 75.05 74.39 72.72 72.26 72.21 71.66 72.16 71.96 72.06
72.73 72.98 72.83 73.42 74.38 74.22 73.67 74.42 74.57 74.54 75.16 75.36 75.16 74.91 74.59 72.91 72.94 72.16 70.84 70.97 71.41 71.26
71.58 71.93 71.88 71.26 72.32 73.05 73.18 74.52 75.92 75.52 75.32 75.35 75.34 75.19 75.48 74.83 73.80 72.05 70.66 70.36 71.68 71.73
68.86 69.63 69.79 70.57 70.20 72.32 74.07 75.10 75.66 75.99 75.21 75.82 75.97 75.80 75.34 75.45 73.31 72.99 72.89 72.14 72.12 72.93
74.85 74.66 74.46 74.38 74.02 74.59 74.42 74.94 74.70 74.66 75.46 75.81 74.93 75.94 74.23 74.93 74.17 70.66 68.70 71.10 72.84 72.88
72.61 72.63 73.46 73.62 73.52 73.83 74.07 73.53 73.70 73.30 73.62 73.66 75.36 72.57 70.77 71.34 71.78 68.25 65.50 64.73 72.29 72.36
69.76 70.22 71.04 72.13 71.82 71.59 71.63 71.60 71.53 71.44 72.61 73.35 73.79 69.37 68.75 69.54 71.31 66.05 65.06 66.85 71.68 71.38
66.77 66.78 67.35 67.53 67.50 68.20 70.79 71.08 70.62 71.19 72.43 72.51 73.55 69.75 67.55 69.09 69.78 71.11 71.21 71.70 71.85 71.26
65.68 65.17 65.34 64.76 65.37 66.57 66.93 67.04 68.45 69.79 69.75 70.41 71.42 68.56 65.62 66.90 68.34 68.84 69.07 69.88 70.59 71.26
64.24 62.85 61.55 62.55 63.11 63.70 64.21 64.87 66.17 66.72 67.50 67.97 69.11 68.19 66.32 64.65 68.48 68.52 68.91 69.03 69.70 68.06
63.01 62.57 63.00 62.39 62.43 62.70 62.67 62.82 62.73 63.56 64.73 65.59 65.57 65.59 61.94 62.20 66.07 67.44 67.10 67.42 67.49 66.39
MSLP
1012.77 1013.15 1013.39 1013.89 1014.55 1014.44 1014.98 1015.62 1015.10 1015.59 1015.01 1014.70 1014.81 1015.47 1016.20 1016.59 1016.67 1017.07 1017.39 1017.44 1017.53 1017.81
1012.31 1012.72 1012.92 1013.17 1013.80 1013.60 1013.58 1014.41 1014.67 1014.77 1014.52 1014.24 1014.48 1015.06 1015.69 1016.25 1016.41 1016.63 1016.83 1016.93 1017.07 1017.34
1011.70 1012.12 1012.46 1012.85 1013.18 1013.42 1013.47 1013.70 1014.33 1014.31 1014.26 1014.20 1014.25 1014.82 1015.49 1015.88 1015.90 1016.11 1016.21 1016.43 1016.59 1016.79
1011.48 1011.78 1012.16 1012.47 1012.74 1012.95 1013.19 1013.36 1013.74 1013.94 1014.11 1013.92 1014.16 1014.42 1015.00 1015.34 1015.59 1015.69 1015.84 1016.02 1016.25 1016.35
1010.94 1011.26 1011.62 1011.89 1012.00 1012.12 1012.41 1012.66 1012.71 1013.10 1013.27 1013.40 1013.61 1013.98 1014.28 1014.77 1015.04 1015.23 1015.43 1015.61 1015.89 1015.98
1010.31 1010.67 1010.95 1011.18 1011.19 1011.27 1011.59 1011.75 1011.99 1012.25 1012.53 1012.81 1013.08 1013.49 1013.71 1013.89 1014.20 1014.52 1014.84 1015.18 1015.48 1015.46
1009.97 1010.54 1010.86 1010.84 1010.99 1010.85 1010.78 1011.00 1011.32 1011.52 1011.87 1012.00 1012.27 1012.71 1013.01 1013.10 1013.30 1013.75 1014.12 1014.38 1014.51 1014.66
1010.46 1010.51 1010.73 1010.94 1010.89 1010.65 1010.71 1010.77 1010.93 1011.03 1011.29 1011.46 1011.74 1012.05 1012.30 1012.35 1012.71 1013.66 1014.57 1014.47 1013.73 1013.60
1010.94 1010.84 1010.97 1011.05 1011.07 1010.99 1010.90 1010.88 1011.05 1011.17 1011.23 1011.30 1011.21 1011.60 1011.66 1011.90 1012.37 1013.16 1012.34 1013.47 1012.53 1012.25
1011.60 1011.60 1011.58 1011.42 1011.39 1011.35 1011.30 1011.25 1011.35 1011.47 1011.35 1011.29 1011.23 1011.39 1011.54 1011.99 1012.31 1012.44 1012.81 1012.54 1012.33 1011.75
1012.39 1012.44 1012.40 1012.31 1012.19 1011.99 1011.73 1011.62 1011.48 1011.35 1011.23 1011.20 1011.19 1011.16 1011.54 1011.82 1011.97 1012.17 1012.25 1012.17 1012.16 1012.03
1012.96 1013.03 1013.02 1012.91 1012.71 1012.47 1012.34 1012.18 1011.97 1011.65 1011.42 1011.35 1011.25 1011.28 1011.54 1011.68 1011.68 1011.76 1011.66 1011.47 1011.28 1011.24
1013.19 1013.35 1013.31 1013.28 1013.15 1012.84 1012.66 1012.55 1012.27 1012.01 1011.63 1011.37 1011.30 1011.18 1011.11 1011.27 1011.44 1011.47 1011.33 1011.17 1011.03 1010.87
1013.19 1013.26 1013.26 1013.21 1013.07 1012.96 1012.89 1012.74 1012.61 1012.40 1012.01 1011.76 1011.91 1011.74 1011.31 1011.16 1011.16 1011.19 1011.12 1011.11 1011.11 1011.07
Wind_Speed
12 7 5 4 4 5 6 12 10 16 10 8 7 9 7 6 6 5 5 7 5 3
7 8 7 7 5 4 5 6 13 15 10 7 7 10 10 7 7 6 6 6 6 4
10 7 7 6 6 5 5 1 10 9 7 7 7 9 9 6 6 8 5 5 6 5
6 7 6 6 6 6 6 6 6 10 8 9 10 9 8 7 7 9 8 6 6 8
7 7 7 7 9 8 7 7 8 7 9 9 8 10 10 9 8 9 8 7 7 7
9 8 8 8 8 9 8 8 8 8 7 8 8 7 9 9 8 7 7 7 8 8
6 3 6 5 6 5 7 8 8 8 8 7 9 8 8 9 8 8 7 9 10 9
6 5 6 4 3 4 4 2 4 5 6 7 6 6 7 7 7 6 6 8 8 11
7 7 6 6 6 6 5 6 4 3 3 5 4 9 11 7 4 13 14 15 16 9
9 8 8 7 6 5 3 2 3 4 4 5 5 8 6 6 4 14 14 13 11 13
7 7 7 7 7 7 6 6 5 5 5 4 4 5 10 10 6 6 7 9 12 13
6 6 6 7 7 5 6 5 5 6 6 5 6 7 8 7 6 6 8 8 8 7
4 4 4 4 4 3 3 5 5 6 6 8 6 7 8 10 5 6 5 5 6 11
2 3 2 2 2 3 4 5 6 6 7 7 9 11 13 10 3 3 3 3 4 1
Wind_Direction
207 208 214 212 185 224 190 186 172 207 227 200 196 191 199 198 202 187 228 236 215 225
183 197 203 210 201 238 254 140 180 203 205 213 200 189 185 199 197 190 214 221 216 219
199 197 203 193 211 213 241 256 173 203 218 205 201 186 186 198 189 193 203 212 224 213
192 204 203 206 212 218 219 234 195 193 214 207 199 184 184 191 194 197 197 200 217 232
195 201 206 207 221 219 213 208 216 202 195 204 187 190 188 194 205 201 203 203 213 220
192 197 205 201 211 230 208 208 199 201 200 193 194 188 198 199 196 186 198 200 209 224
211 247 235 230 275 258 228 209 195 194 203 207 196 201 206 202 193 192 205 207 212 213
79 87 78 87 34 25 25 52 229 220 213 216 205 217 222 209 208 65 350 287 227 221
39 36 55 48 31 21 9 17 10 328 272 262 250 230 242 254 161 140 202 247 257 227
33 31 23 20 14 5 4 6 339 300 286 271 256 257 186 227 224 180 204 225 246 259
33 27 19 21 13 9 1 345 328 329 329 320 296 274 161 181 194 207 217 232 245 244
37 26 15 5 351 356 6 354 349 333 334 335 321 301 191 184 205 224 235 239 251 237
57 28 344 343 13 344 347 330 336 332 328 323 313 301 281 200 217 230 242 245 255 253
37 351 28 32 327 314 314 318 322 320 316 315 3 5 8 337 287 285 257 243 271 60